カタログに戻る

MARS ORBITER MISSION

運用中科学HCO
NORAD 39370·PAYLOAD·🇮🇳 India

打ち上げ Nov 5, 2013 から Satish Dhawan Space Centre

Loading…

TLE

古いSource: Space-Track

元期: Nov 15, 2013, 20:28 UTC

1 39370U 13060A   13319.85296673 -.00001668  00000-0  00000+0 0  9996
2 39370 019.4167 122.9551 9306301 288.8779 002.1288 00.25833433   156

AllMySatでMARS ORBITER MISSIONをリアルタイム追跡

Download on the App Store